Previsão horária em 8 Marta

Hoje, 29 Setembro, Terça-feira

Tempo Temperatura Precipitação Vento Pressão Humidade
00:00 +13°C° 0 mm 4 m/s 750 mmHg 42%
01:00 +13°C° 0 mm 4 m/s 750 mmHg 41%
02:00 +12°C° 0 mm 4 m/s 750 mmHg 41%
03:00 +12°C° 0 mm 4 m/s 750 mmHg 40%
04:00 +12°C° 0 mm 4 m/s 750 mmHg 41%
05:00 +12°C° 0 mm 4 m/s 750 mmHg 41%
06:00 +12°C° 0 mm 4 m/s 749 mmHg 42%
07:00 +12°C° 0 mm 5 m/s 749 mmHg 44%
08:00 +12°C° 0 mm 5 m/s 749 mmHg 45%
09:00 +11°C° 0 mm 6 m/s 749 mmHg 46%
10:00 +14°C° 0 mm 6 m/s 749 mmHg 44%
11:00 +15°C° 0 mm 6 m/s 749 mmHg 42%
12:00 +16°C° 0 mm 6 m/s 749 mmHg 40%
13:00 +16°C° 0 mm 6 m/s 749 mmHg 37%
14:00 +16°C° 0 mm 6 m/s 749 mmHg 35%
15:00 +17°C° 0 mm 6 m/s 749 mmHg 34%
16:00 +16°C° 0 mm 5 m/s 748 mmHg 35%
17:00 +16°C° 0 mm 5 m/s 748 mmHg 37%
18:00 +15°C° 0 mm 5 m/s 748 mmHg 38%
19:00 +14°C° 0 mm 5 m/s 748 mmHg 38%
20:00 +14°C° 0 mm 5 m/s 748 mmHg 38%
21:00 +14°C° 0 mm 5 m/s 748 mmHg 38%
22:00 +13°C° 0 mm 5 m/s 747 mmHg 39%
23:00 +13°C° 0 mm 5 m/s 747 mmHg 40%

Amanhã, 30 Setembro, Quarta-feira

Tempo Temperatura Precipitação Vento Pressão Humidade
00:00 +12°C° 0 mm 5 m/s 747 mmHg 41%
01:00 +12°C° 0 mm 5 m/s 747 mmHg 41%
02:00 +12°C° 0 mm 5 m/s 747 mmHg 42%
03:00 +12°C° 0 mm 5 m/s 747 mmHg 42%
04:00 +10°C° 0 mm 5 m/s 747 mmHg 44%
05:00 +10°C° 0 mm 5 m/s 747 mmHg 46%
06:00 +10°C° 0 mm 5 m/s 747 mmHg 48%
07:00 +12°C° 0 mm 5 m/s 747 mmHg 49%
08:00 +11°C° 0 mm 6 m/s 747 mmHg 50%
09:00 +12°C° 0 mm 7 m/s 747 mmHg 51%
10:00 +14°C° 0 mm 7 m/s 747 mmHg 46%
11:00 +16°C° 0 mm 7 m/s 747 mmHg 42%
12:00 +17°C° 0 mm 8 m/s 747 mmHg 38%
13:00 +18°C° 0 mm 8 m/s 746 mmHg 37%
14:00 +18°C° 0 mm 7 m/s 746 mmHg 37%
15:00 +18°C° 0 mm 7 m/s 746 mmHg 36%
16:00 +17°C° 0 mm 7 m/s 746 mmHg 40%
17:00 +16°C° 0 mm 6 m/s 746 mmHg 43%
18:00 +15°C° 0 mm 5 m/s 746 mmHg 47%
19:00 +15°C° 0 mm 5 m/s 746 mmHg 48%
20:00 +14°C° 0 mm 5 m/s 747 mmHg 48%
21:00 +14°C° 0 mm 5 m/s 747 mmHg 49%
22:00 +13°C° 0 mm 5 m/s 747 mmHg 50%
23:00 +13°C° 0 mm 5 m/s 747 mmHg 50%

Depois de amanhã, 1 Outubro, Quinta-feira

Tempo Temperatura Precipitação Vento Pressão Humidade
00:00 +13°C° 0 mm 5 m/s 747 mmHg 51%
01:00 +12°C° 0 mm 5 m/s 747 mmHg 52%
02:00 +12°C° 0 mm 5 m/s 747 mmHg 52%
03:00 +12°C° 0 mm 5 m/s 747 mmHg 52%
04:00 +12°C° 0 mm 5 m/s 747 mmHg 54%
05:00 +10°C° 0 mm 5 m/s 747 mmHg 56%
06:00 +10°C° 0 mm 5 m/s 747 mmHg 58%
07:00 +12°C° 0 mm 5 m/s 747 mmHg 55%
08:00 +13°C° 0 mm 6 m/s 748 mmHg 53%
09:00 +13°C° 0 mm 6 m/s 748 mmHg 51%
10:00 +15°C° 0 mm 7 m/s 748 mmHg 45%
11:00 +16°C° 0 mm 7 m/s 748 mmHg 39%
12:00 +17°C° 0 mm 7 m/s 748 mmHg 33%
13:00 +17°C° 0 mm 7 m/s 748 mmHg 33%
14:00 +18°C° 0 mm 7 m/s 748 mmHg 33%
15:00 +18°C° 0 mm 7 m/s 748 mmHg 32%
16:00 +17°C° 0 mm 6 m/s 747 mmHg 37%
17:00 +16°C° 0 mm 5 m/s 747 mmHg 41%
18:00 +14°C° 0 mm 4 m/s 747 mmHg 46%
19:00 +14°C° 0 mm 4 m/s 747 mmHg 46%
20:00 +14°C° 0 mm 5 m/s 748 mmHg 46%
21:00 +14°C° 0 mm 5 m/s 748 mmHg 46%
22:00 +13°C° 0 mm 5 m/s 748 mmHg 46%
23:00 +13°C° 0 mm 5 m/s 748 mmHg 46%

2 Outubro, Sexta-feira

Tempo Temperatura Precipitação Vento Pressão Humidade
00:00 +13°C° 0 mm 5 m/s 748 mmHg 46%
01:00 +12°C° 0 mm 5 m/s 748 mmHg 46%
02:00 +12°C° 0 mm 5 m/s 748 mmHg 47%
03:00 +12°C° 0 mm 5 m/s 748 mmHg 48%
04:00 +11°C° 0 mm 4 m/s 748 mmHg 50%
05:00 +11°C° 0 mm 4 m/s 748 mmHg 51%
06:00 +10°C° 0 mm 4 m/s 748 mmHg 53%
07:00 +10°C° 0 mm 5 m/s 748 mmHg 54%
08:00 +12°C° 0 mm 5 m/s 748 mmHg 55%
09:00 +12°C° 0 mm 5 m/s 748 mmHg 57%
10:00 +14°C° 0 mm 6 m/s 748 mmHg 54%
11:00 +16°C° 0 mm 6 m/s 749 mmHg 51%
12:00 +17°C° 0 mm 6 m/s 749 mmHg 48%
13:00 +17°C° 0 mm 6 m/s 749 mmHg 48%
14:00 +19°C° 0 mm 6 m/s 748 mmHg 48%
15:00 +19°C° 0 mm 6 m/s 748 mmHg 48%
16:00 +17°C° 0 mm 5 m/s 748 mmHg 51%
17:00 +16°C° 0 mm 5 m/s 748 mmHg 55%
18:00 +15°C° 0 mm 4 m/s 748 mmHg 59%
19:00 +14°C° 0 mm 4 m/s 748 mmHg 59%
20:00 +14°C° 0 mm 4 m/s 748 mmHg 59%
21:00 +14°C° 0 mm 5 m/s 749 mmHg 60%
22:00 +13°C° 0 mm 5 m/s 749 mmHg 59%
23:00 +13°C° 0 mm 5 m/s 749 mmHg 59%

3 Outubro, Sábado

Tempo Temperatura Precipitação Vento Pressão Humidade
00:00 +13°C° 0 mm 4 m/s 749 mmHg 59%
01:00 +13°C° 0 mm 4 m/s 748 mmHg 59%
02:00 +12°C° 0 mm 4 m/s 748 mmHg 59%
03:00 +12°C° 0 mm 4 m/s 748 mmHg 60%
04:00 +12°C° 0 mm 4 m/s 748 mmHg 60%
05:00 +11°C° 0 mm 4 m/s 748 mmHg 60%
06:00 +10°C° 0 mm 5 m/s 748 mmHg 60%
07:00 +12°C° 0 mm 5 m/s 748 mmHg 58%
08:00 +12°C° 0 mm 5 m/s 748 mmHg 57%
09:00 +13°C° 0 mm 5 m/s 749 mmHg 56%
10:00 +14°C° 0 mm 5 m/s 749 mmHg 53%
11:00 +15°C° 0 mm 5 m/s 749 mmHg 50%
12:00 +17°C° 0 mm 4 m/s 749 mmHg 48%
13:00 +17°C° 0 mm 4 m/s 749 mmHg 46%
14:00 +18°C° 0 mm 4 m/s 749 mmHg 45%
15:00 +18°C° 0 mm 4 m/s 749 mmHg 44%
16:00 +17°C° 0 mm 4 m/s 749 mmHg 46%
17:00 +17°C° 0 mm 4 m/s 749 mmHg 48%
18:00 +16°C° 0 mm 3 m/s 749 mmHg 50%
19:00 +15°C° 0 mm 4 m/s 749 mmHg 50%
20:00 +15°C° 0 mm 4 m/s 749 mmHg 49%
21:00 +15°C° 0 mm 5 m/s 749 mmHg 49%
22:00 +14°C° 0 mm 4 m/s 749 mmHg 50%
23:00 +14°C° 0 mm 4 m/s 749 mmHg 51%

4 Outubro, Domingo

Tempo Temperatura Precipitação Vento Pressão Humidade
00:00 +13°C° 0 mm 4 m/s 749 mmHg 52%
01:00 +13°C° 0 mm 3 m/s 749 mmHg 54%
02:00 +12°C° 0 mm 3 m/s 749 mmHg 55%
03:00 +12°C° 0 mm 3 m/s 749 mmHg 56%
04:00 +12°C° 0 mm 2 m/s 749 mmHg 57%
05:00 +12°C° 0 mm 2 m/s 749 mmHg 58%
06:00 +12°C° 0 mm 2 m/s 749 mmHg 59%
07:00 +12°C° 0 mm 2 m/s 749 mmHg 57%
08:00 +12°C° 0 mm 3 m/s 750 mmHg 55%
09:00 +13°C° 0 mm 3 m/s 750 mmHg 53%
10:00 +14°C° 0 mm 4 m/s 750 mmHg 48%
11:00 +17°C° 0 mm 4 m/s 750 mmHg 43%
12:00 +17°C° 0 mm 5 m/s 750 mmHg 38%
13:00 +19°C° 0 mm 5 m/s 750 mmHg 36%
14:00 +19°C° 0 mm 5 m/s 750 mmHg 35%
15:00 +19°C° 0 mm 5 m/s 750 mmHg 34%
16:00 +18°C° 0 mm 4 m/s 750 mmHg 38%
17:00 +15°C° 0 mm 4 m/s 750 mmHg 43%
18:00 +14°C° 0 mm 3 m/s 750 mmHg 47%
19:00 +13°C° 0 mm 3 m/s 750 mmHg 49%
20:00 +13°C° 0 mm 3 m/s 750 mmHg 50%
21:00 +12°C° 0 mm 3 m/s 750 mmHg 51%
22:00 +12°C° 0 mm 4 m/s 750 mmHg 52%
23:00 +12°C° 0 mm 4 m/s 750 mmHg 52%
Mostrar mais